Location: Lynch Observatory
(39.9540°N, 75.1861°W)
Time: 18:49:12
(UTC-04:00)

ZACube-1 - Pass Details

Date: 03 May 2024
Orbit: 566 x 635 km, 97.7° (Epoch: 28 May)

Event Time Altitude Azimuth Distance (km) Brightness Sun altitude
Rises 05:16:51 0° 352° (N) 2,943 ? -7.9°
Reaches altitude 10° 05:20:01 10° 327° (NNW) 2,031 ? -7.4°
Maximum altitude 05:22:17 14° 296° (WNW) 1,772 ? -7.0°
Drops below altitude 10° 05:24:33 10° 265° (W) 2,021 ? -6.6°
Enters shadow 05:25:28 - 256° (WSW) 2,236 ? -6.5°
